User: anonymous   Login
Location: Haram ta Haram Freeway
(35.0583°N, 51.4202°E)
Time: 12:01:28
(UTC+03:30)
Language:

Envisat - Orbit

View from above orbital plane
View from above orbital plane
View from above satellite
View from above satellite

Ground track
Ground track

The orbit data is extracted from the following two-line orbital elements,

1 27386U 02009A   22336.88753713  .00000134  00000-0  57597-4 0  9990
2 27386  98.2054 310.2752 0001300  85.5077 306.6653 14.38191495 87674
Epoch (UTC): 02 December 2022 21:18:03
Eccentricity: 0.0001300
inclination: 98.2054°
perigee height: 763 km
apogee height: 765 km
right ascension of ascending node: 310.2752°
argument of perigee: 85.5077°
revolutions per day: 14.38191495
mean anomaly at epoch: 306.6653°
orbit number at epoch: 8767

The dashed part of the orbit path shows where the satellite is in the earth's shadow,  

DLR